Location: Kitt Peak
(31.9639°N, 111.5992°W)
Time: 14:13:06
(UTC-07:00)

BUGSAT 1 - Pass Details

Date: 20 September 2024
Orbit: 523 x 572 km, 98.1° (Epoch: 04 October)

Event Time Altitude Azimuth Distance (km) Brightness Sun altitude
Exits shadow 20:55:58 12° 347° (NNW) 1,705 ? -32.0°
Drops below altitude 10° 20:56:20 10° 347° (NNW) 1,858 ? -32.1°
Sets 20:58:28 0° 348° (NNW) 2,749 ? -32.5°
